Location: Pettit
(39.0209°N, 79.7181°W)
Time: 12:24:30
(UTC+00:00)

ISS - Pass Details

Date: 19 April 2026
Orbit: 414 x 424 km, 51.6° (Epoch: 11 May)

Event Time Altitude Azimuth Distance (km) Brightness Sun altitude
Exits shadow 08:52:03 32° 155° (SSE) 746 -2.6 -19.3°
Maximum altitude 08:52:34 34° 135° (SE) 714 -2.5 -19.2°
Drops below altitude 10° 08:55:39 10° 68° (ENE) 1,501 0.2 -18.7°
Sets 08:57:52 0° 59° (ENE) 2,371 1.8 -18.4°
